Home > Weather > Delémont > Past weeks

Flag for Switzerland Past Weather in Delémont, Jura, Switzerland — Yesterday and Last 2 Weeks

Now
86 °F

Pleasantly warm.


Feels Like: 85 °F
Forecast: 59 / 73 °F
Wind: 6 mph from West

Location: Grenchen

Current Time: Aug 28, 2016 at 6:42:18 PM

Latest Report: Aug 28, 2016 at 6:00 PM


Visibility: N/A

Pressure: 29.97 "Hg

Humidity: 38%

Dew Point: 57 °F

Location of DelémontLocation

Past Weather in Delémont — Graph

°F

Delémont Temperature Yesterday

Maximum temperature yesterday: 89 °F (at 4:00 PM)
Minimum temperature yesterday: 60 °F (at 6:00 AM)
Average temperature yesterday: 74 °F

High & Low Weather Summary for the Past Weeks

 TemperatureHumidityPressure
High89 °F (Aug 26, 5:00 PM)100% (Aug 25, 6:00 AM)30.41 "Hg (Aug 25, 6:00 AM)
Low47 °F (Aug 22, 7:00 AM)36% (Aug 28, 5:00 PM)29.81 "Hg (Aug 17, 5:00 PM)
Average69 °F76%30.08 "Hg
* Reported Aug 13 5:00 PM — Aug 28 5:00 PM, Delémont, Weather by CustomWeather, © 2016

Note: Actual official high and low records may vary slightly from our data, if they occured in-between our weather recording intervals... More about our weather records

Advertising

Delémont Weather History for the Previous 24 Hours

Scroll right to see more
 ConditionsComfort  
Time TempWeatherWind HumidityBarometerVisibility
5:00 PM
Sun, Aug 28
87 °FPleasantly warm.8 mph36%29.97 "HgN/A
4:00 PM87 °FPleasantly warm.7 mph37%29.98 "HgN/A
3:00 PM87 °FPleasantly warm.9 mph38%29.99 "HgN/A
2:00 PM85 °FWarm.8 mph42%30.01 "HgN/A
1:00 PM83 °FWarm.10 mph45%30.04 "HgN/A
12:00 PM80 °FWarm.12 mph48%30.06 "HgN/A
11:00 AM77 °FWarm.9 mph60%30.08 "HgN/A
10:00 AM73 °FMild.7 mph69%30.09 "HgN/A
9:00 AM70 °FMild.3 mph80%30.10 "HgN/A
8:00 AM66 °FMild.1 mph93%30.11 "HgN/A
7:00 AM63 °FMild.No wind95%30.11 "HgN/A
5:00 AM66 °FMild.1 mph94%30.09 "HgN/A
4:00 AM68 °FMild.3 mph86%30.09 "HgN/A
3:00 AM69 °FMild.3 mph88%30.06 "HgN/A
2:00 AM70 °FMild.2 mph84%30.07 "HgN/A
1:00 AM71 °FMild.2 mph83%30.07 "HgN/A
12:00 AM70 °FMild.2 mph83%30.06 "HgN/A
11:00 PM
Sat, Aug 27
71 °FMild.2 mph83%30.05 "HgN/A
10:00 PM74 °FMild.1 mph78%30.03 "HgN/A
9:00 PM79 °FWarm.3 mph64%30.00 "HgN/A
8:00 PM83 °FWarm.3 mph56%29.98 "HgN/A
7:00 PM88 °FHot.3 mph41%29.96 "HgN/A
6:00 PM89 °FHot.3 mph40%29.96 "HgN/A
Weather by CustomWeather, © 2016

See weather overviewHow to use our weather pages